ROMMA est une association bénévole à but non lucratif. Votre soutien est indispensable : ADHERER à ROMMA ou FAIRE un DON

Voiron - (38, Isère)

Voironnais (300 m)   Longitude: 05° 35' E   Latitude: 45° 23' N Station partenaire n°109
 

Détail journalier du     <<     >>

Température Precipitation Humidité Pression Vent Dir Rafale Dir. rafale Ensol.
Heure (°C) (mm) (%) (hPa) (km/h) (km/h) (min)
01:00 5.90.88010227NE27NNO0
02:00 5.608510222N15NE0
03:00 5.308710212NNE6NNE0
04:00 4.608810212ESE10NNO0
05:00 5.108810222NNO8ONO0
06:00 5.80.27710226N19N0
07:00 5.4080102310N39NNE0
08:00 5.7075102316N32N0
09:00 5.9075102417N32N0
10:00 6.406710259N24N0
11:00 7.307010257NNE21NNE0
12:00 8.705710247ESE23ENE30
13:00 8.6061102410ESE24SSE0
14:00 9.9052102411ESE27NNO0
15:00 8.6065102414NNO32NNO0
16:00 10.8051102414NNO29N60
17:00 9.1062102415NNO31NNO0
18:00 8.6065102411N31N30
19:00 8.3062102511N24NE0
20:00 7.9065102510N27NNO0
21:00 7.406710259NE23ENE0
22:00 5.707310255N15NNE0
23:00 6.606810255NNO16N0
minuit 6.307010255NE15NE0

Graphique du 18-03-2019

 

Serveur OMMA